User: anonymous   Login
Location: Fort Wayne
(41.1310°N, 85.1290°W)
Time: 15:14:19
(UTC-05:00)
Language:

Iridium 37 - Orbit

View from above orbital plane
View from above orbital plane
View from above satellite
View from above satellite

Ground track
Ground track

The orbit data is extracted from the following two-line orbital elements,

1 24968U 97056D   15064.53879072  .00000515  00000-0  17685-3 0  9994
2 24968 086.3970 307.7446 0002001 083.5664 276.5760 14.34221898912906
Epoch (UTC): 05 March 2015 12:55:51
Eccentricity: 0.0002001
inclination: 86.3970°
perigee height: 776 km
apogee height: 779 km
right ascension of ascending node: 307.7446°
argument of perigee: 83.5664°
revolutions per day: 14.34221898
mean anomaly at epoch: 276.5760°
orbit number at epoch: 91290

The dashed part of the orbit path shows where the satellite is in the earth's shadow,  

DLR